星链-32084 (STARLINK-32084)

导读

STARLINK-32084是美国SpaceX公司于2024年8月2日发射的星链低轨互联网卫星,属于Starlink星座组网计划的一部分,该计划计划部署超4万余颗卫星,旨在实现全球覆盖高速低延迟宽带互联网接入。卫星采用平板设计、搭载氪工质霍尔推进器,具备自主避撞能力,服役期满后会受控离轨再入大气层焚毁,可降低空间碎片风险,为偏远地区等提供网络连接服务。

基本信息
目录编号:
60347
目录名称:
STARLINK-32084
国际标识:
2024-136U
轨道中心:
EARTH
卫星名称:
星链-32084 (STARLINK-32084)
卫星全名:
星链-32084 (STARLINK-32084)
卫星状态:
在轨 (已飞行685 天)
发射日期:
2024-08-02 UTC
国别 :
美国 (US)
星等 :
--
轨道信息
数据来源 国际轨道数据 AOE轨道数据
星历时间 2026-06-18T02:33:43+0800
6小时前
查看轨道信息
2026-06-11T17:00:00+0800
6天前
查看轨道信息
半长轴 6848.922km 6848.821km
偏心率 0.0001134 0.0003129
轨道倾角 53.161° 53.166°
近地点辐角 117.715° 94.480°
升交点赤经 330.370° 0.168°
平近点角 242.397° 244.341°
近地点 470.008km 468.541km
远地点 471.562km 472.827km
周期 94.014分钟 94.012分钟
每日圈数 15.31685 15.317189
详细信息
卫星平台:
Starlink v2.0 mini
运营商:
太空探索技术公司
运营商所在国:
美国
制造商(研发单位):
太空探索技术公司
制造商所在国:
美国
使用方式:
暂无
卫星简介
星链(Starlink)计划是由太空探索技术公司(SpaceX)提出的一个巨型低轨卫星互联网星座项目,计划在2019年至2024年间在太空搭建由约1.2万颗卫星组成的“星链”网络,其中1584颗将部署在地球上空550千米处的近地轨道,并从2020年开始工作。该卫星仍在工作。
2D轨道图
3D轨道图
轨道高度分析图
轨道倾角分析图
轨道综合分析图
查看轨道综合分析图